Weather History for Salisbury, MD

Change the Weather History Date:

Monday, October 21, 2013

  Actual Average Record
Temperature  
Mean Temperature 55 °F 56 °F  
Max Temperature 69 °F 67 °F 85 °F (1947)
Min Temperature 40 °F 44 °F 26 °F (1940)
Degree Days  
Heating Degree Days 10 10  
Month to date heating degree days 43 153  
Since 1 July heating degree days 70 201  
Cooling Degree Days 0 0  
Month to date cooling degree days 88 22  
Year to date cooling degree days 1620 1147  
Growing Degree Days 5 (Base 50)    
Moisture  
Dew Point 42 °F    
Average Humidity 60    
Maximum Humidity 89    
Minimum Humidity 31    
Precipitation  
Precipitation 0.00 in 0.11 in 2.86 in (1961)
Month to date precipitation 3.61 2.37  
Year to date precipitation 44.06 37.42  
Snow  
Snow 0.00 in 0.00 in 0.00 in (2002)
Month to date snowfall 0.0 0.0  
Since 1 July snowfall 0.0 0.0  
Snow Depth 0.00 in    
Sea Level Pressure  
Sea Level Pressure 30.11 in    
Wind  
Wind Speed 2 mph (SE)    
Max Wind Speed 13 mph    
Max Gust Speed 18 mph    
Visibility 10 miles    
Events      
T = Trace of Precipitation, MM = Missing Value Source: NWS Daily Summary

Daily Weather History Graph

Daily Weather History Graph

Search for Another Location

Airport:

Trip Planner

Search our weather history database for the weather conditions in past years. The results will help you decide how hot, cold, wet, or windy it might be!

Date:

Astronomy

Oct. 21, 2013 Rise Set
Actual Time 7:17 AM EDT 6:15 PM EDT
Civil Twilight 6:50 AM EDT 6:42 PM EDT
Nautical Twilight 6:19 AM EDT 7:13 PM EDT
Astronomical Twilight 5:48 AM EDT 7:43 PM EDT
Moon 8:08 PM EDT (10/21) 9:47 AM EDT (10/21)
Length of Visible Light 11h 52m
Length of Day
10h 58m
Waning Gibbous, 93% of the Moon is Illuminated
Oct 21
Waning Gibbous
Oct 26
Last Quarter
Nov 3
New
Nov 10
First Quarter
Nov 17
Full

Hourly Weather History & Observations

Time (EDT) Temp. Dew Point Humidity Pressure Visibility Wind Dir Wind Speed Gust Speed Precip Events Conditions
12:54 AM 43.0 °F 39.0 °F 86% 30.13 in 10.0 mi Calm Calm - N/A   Clear
1:54 AM 42.1 °F 37.9 °F 85% 30.14 in 10.0 mi Calm Calm - N/A   Clear
2:54 AM 42.1 °F 37.0 °F 82% 30.14 in 10.0 mi Calm Calm - N/A   Clear
3:54 AM 42.1 °F 37.0 °F 82% 30.14 in 10.0 mi Calm Calm - N/A   Clear
4:54 AM 41.0 °F 37.0 °F 86% 30.15 in 10.0 mi Calm Calm - N/A   Clear
5:54 AM 41.0 °F 37.0 °F 86% 30.16 in 10.0 mi Calm Calm - N/A   Clear
6:54 AM 41.0 °F 36.0 °F 82% 30.17 in 10.0 mi Calm Calm - N/A   Clear
7:54 AM 43.0 °F 37.9 °F 82% 30.17 in 10.0 mi Calm Calm - N/A   Clear
8:54 AM 50.0 °F 45.0 °F 83% 30.18 in 10.0 mi Calm Calm - N/A   Clear
9:54 AM 61.0 °F 48.0 °F 62% 30.18 in 10.0 mi Calm Calm - N/A   Clear
10:54 AM 64.0 °F 39.9 °F 41% 30.17 in 10.0 mi Calm Calm - N/A   Clear
11:54 AM 66.0 °F 39.9 °F 38% 30.16 in 10.0 mi Variable 5.8 mph - N/A   Clear
12:54 PM 66.9 °F 37.9 °F 34% 30.14 in 10.0 mi SSE 5.8 mph - N/A   Clear
1:54 PM 69.1 °F 37.9 °F 32% 30.11 in 10.0 mi SE 6.9 mph - N/A   Clear
2:54 PM 68.0 °F 41.0 °F 37% 30.09 in 10.0 mi ESE 9.2 mph - N/A   Clear
3:54 PM 66.9 °F 42.1 °F 40% 30.07 in 10.0 mi SE 9.2 mph - N/A   Clear
4:54 PM 66.0 °F 43.0 °F 43% 30.07 in 10.0 mi SSE 5.8 mph - N/A   Clear
5:54 PM 62.1 °F 46.0 °F 56% 30.07 in 10.0 mi SSE 4.6 mph - N/A   Clear
6:54 PM 55.9 °F 48.0 °F 75% 30.07 in 10.0 mi Calm Calm - N/A   Clear
7:54 PM 53.1 °F 48.0 °F 83% 30.06 in 10.0 mi Calm Calm - N/A   Clear
8:54 PM 53.1 °F 48.0 °F 83% 30.06 in 10.0 mi Calm Calm - N/A   Clear
9:54 PM 51.1 °F 46.9 °F 86% 30.05 in 10.0 mi Calm Calm - N/A   Clear
10:54 PM 50.0 °F 46.0 °F 86% 30.04 in 10.0 mi Calm Calm - N/A   Clear
11:54 PM 51.1 °F 46.0 °F 83% 30.02 in 10.0 mi Calm Calm - N/A   Clear